Santiago, Chile

9:53 PM -03 on November 12, 2018 (GMT -0300)
Arturo Merino Benitez International

Weather History for SCEL - February, 2018

Change the Weather History Date:

Sunday, February 4, 2018

  Actual Average Record
Temperature  
Mean Temperature 74 °F -  
Max Temperature 87 °F 81 °F 138 °F (1997)
Min Temperature 60 °F 51 °F 32 °F (1997)
Cooling Degree Days 8    
Growing Degree Days 24 (Base 50)    
Moisture  
Dew Point 56 °F    
Average Humidity 57    
Maximum Humidity 82    
Minimum Humidity 29    
Precipitation  
Precipitation 0.00 in - - ()
Sea Level Pressure  
Sea Level Pressure 29.92 in    
Wind  
Wind Speed 8 mph ()    
Max Wind Speed 17 mph    
Max Gust Speed -    
Visibility 5.4 miles    
Events      
Averages and records for this station are not official NWS values.
T = Trace of Precipitation, MM = Missing Value Source: Averaged Metar Reports

Daily Weather History Graph

Daily Weather History Graph

Search for Another Location

Airport or City:

Astronomy

Feb. 04, 2018 Rise Set
Actual Time 7:08 AM -03 8:44 PM -03
Civil Twilight 6:42 AM -03 9:11 PM -03
Nautical Twilight 6:09 AM -03 9:43 PM -03
Astronomical Twilight 5:36 AM -03 10:17 PM -03
Moon 11:43 PM -03 (2/4) 11:24 AM -03 (2/4)
Length of Visible Light 14h 29m
Length of Day
13h 36m
Waning Gibbous, 79% of the Moon is Illuminated
Feb 4
Waning Gibbous
Feb 7
Last Quarter
Feb 15
New
Feb 23
First Quarter
Mar 1
Full

Hourly Weather History & Observations

Time (-03) Temp. Heat Index Dew Point Humidity Pressure Visibility Wind Dir Wind Speed Gust Speed Precip Events Conditions
12:00 AM 69.8 °F - 57.2 °F 64% 29.92 in - SSE 9.2 mph - N/A   Clear
1:00 AM 66.2 °F - 57.2 °F 73% 29.92 in - South 9.2 mph - N/A   Clear
2:00 AM 66.2 °F - 55.4 °F 68% 29.92 in - SSE 9.2 mph - N/A   Clear
3:00 AM 64 °F - 56 °F 67% 29.91 in 6 mi SSE 6.9 mph - -   Partly Cloudy
3:00 AM 64.4 °F - 55.4 °F 73% 29.92 in - SSE 6.9 mph - N/A   Clear
4:00 AM 62.6 °F - 55.4 °F 77% 29.92 in - South 5.8 mph - N/A   Clear
5:00 AM 62.6 °F - 55.4 °F 77% 29.92 in - SSE 4.6 mph - N/A   Clear
6:00 AM 60.8 °F - 55.4 °F 82% 29.95 in - SSE 4.6 mph - N/A   Clear
7:00 AM 60.8 °F - 55.4 °F 82% 29.98 in - South 4.6 mph - N/A   Clear
8:00 AM 62.6 °F - 55.4 °F 77% 29.98 in 4.3 mi South 2.3 mph - N/A   Unknown
9:00 AM 65 °F - 55 °F 63% 29.97 in 5 mi SSE 3.5 mph - -   Smoke
9:00 AM 64.4 °F - 55.4 °F 73% 30.01 in 5.0 mi SSE 3.5 mph - N/A   Unknown
10:00 AM 69.8 °F - 55.4 °F 60% 30.01 in - SSE 3.5 mph - N/A   Clear
11:00 AM 73.4 °F - 57.2 °F 57% 29.98 in - Variable 3.5 mph - N/A   Clear
12:00 PM 77.0 °F - 57.2 °F 50% 29.95 in - South 6.9 mph - N/A   Clear
1:00 PM 82.4 °F 82.5 °F 59.0 °F 45% 29.95 in - South 9.2 mph - N/A   Clear
2:00 PM 84.2 °F 83.5 °F 57.2 °F 40% 29.92 in - SSE 12.7 mph - N/A   Clear
3:00 PM 85 °F - 58 °F 29% 29.82 in 6 mi SSW 13.8 mph - -   Partly Cloudy
3:00 PM 86.0 °F 84.9 °F 57.2 °F 37% 29.89 in - SSW 13.8 mph - N/A   Clear
4:00 PM 86.0 °F 84.9 °F 57.2 °F 37% 29.89 in - SW 17.3 mph - N/A   Clear
5:00 PM 84.2 °F 83.5 °F 57.2 °F 40% 29.89 in - SW 16.1 mph - N/A   Clear
6:00 PM 84.2 °F 83.5 °F 57.2 °F 40% 29.89 in - SW 17.3 mph - N/A   Clear
7:00 PM 82.4 °F 82.0 °F 57.2 °F 42% 29.86 in - SSW 17.3 mph - N/A   Clear
8:00 PM 78.8 °F - 55.4 °F 44% 29.89 in - SSW 15.0 mph - N/A   Clear
9:00 PM 75 °F - 56 °F 41% 29.85 in 6 mi SSW 13.8 mph - -   Partly Cloudy
9:00 PM 75.2 °F - 55.4 °F 50% 29.89 in - SSW 13.8 mph - N/A   Clear
10:00 PM 71.6 °F - 55.4 °F 57% 29.92 in - SSE 11.5 mph - N/A   Clear
11:00 PM 68.0 °F - 55.4 °F 64% 29.92 in - SSE 11.5 mph - N/A   Clear